User: anonymous   Login
Location: Waning Moon II Observatory
(30.3730°N, 89.7620°W)
Time: 23:32:19
(UTC-05:00)
Language:

Cosmos 1825 Rocket - Orbit

View from above orbital plane
View from above orbital plane
View from above satellite
View from above satellite

Ground track
Ground track

The orbit data is extracted from the following two-line orbital elements,

1 17567U 87024B   16206.88252371  .00000105  00000-0  98449-5 0  9993
2 17567  82.5309 145.3527 0018973 350.7902   9.2962 14.83599263587936
Epoch (UTC): 24 July 2016 21:10:50
Eccentricity: 0.0018973
inclination: 82.5309°
perigee height: 605 km
apogee height: 631 km
right ascension of ascending node: 145.3527°
argument of perigee: 350.7902°
revolutions per day: 14.83599263
mean anomaly at epoch: 9.2962°
orbit number at epoch: 58793

The dashed part of the orbit path shows where the satellite is in the earth's shadow,  

DLR